Jamestown, ND

4:15 PM CDT on April 20, 2018 (GMT -0500)
Jamestown Municipal

Weather History for KJMS - November, 2013

Change the Weather History Date:

Friday, November 8, 2013

  Actual Average Record
Temperature  
Mean Temperature 32 °F 32 °F  
Max Temperature 43 °F 42 °F 74 °F (1999)
Min Temperature 21 °F 22 °F -3 °F (1966)
Degree Days  
Heating Degree Days 33 33  
Month to date heating degree days 238 246  
Since 1 July heating degree days 1106 1213  
Cooling Degree Days 0 0  
Month to date cooling degree days 0 0  
Year to date cooling degree days 521 446  
Moisture  
Dew Point 32 °F    
Average Humidity 77    
Maximum Humidity 92    
Minimum Humidity 62    
Precipitation  
Precipitation T in 0.03 in 0.91 in (1977)
Month to date precipitation 0.01 0.21  
Year to date precipitation 15.87 17.95  
Sea Level Pressure  
Sea Level Pressure 29.69 in    
Wind  
Wind Speed 11 mph (SSW)    
Max Wind Speed 26 mph    
Max Gust Speed 33 mph    
Visibility 10 miles    
Events Rain    
T = Trace of Precipitation, MM = Missing Value Source: NWS Daily Summary

Daily Weather History Graph

Daily Weather History Graph

Search for Another Location

Airport or City:

Astronomy

Nov. 08, 2013 Rise Set
Actual Time 7:28 AM CST 5:08 PM CST
Civil Twilight 6:55 AM CST 5:40 PM CST
Nautical Twilight 6:19 AM CST 6:17 PM CST
Astronomical Twilight 5:43 AM CST 6:52 PM CST
Moon 12:24 PM CST (11/8) 10:32 PM CST (11/8)
Length of Visible Light 10h 45m
Length of Day
9h 40m
Waxing Crescent, 33% of the Moon is Illuminated
Nov 8
Waxing Crescent
Nov 9
First Quarter
Nov 17
Full
Nov 25
Last Quarter
Dec 2
New

Hourly Weather History & Observations

Time (CST) Temp. Windchill Dew Point Humidity Pressure Visibility Wind Dir Wind Speed Gust Speed Precip Events Conditions
12:56 AM 25.0 °F 19.3 °F 21.9 °F 88% 30.08 in 10.0 mi SSE 4.6 mph - N/A   Partly Cloudy
1:56 AM 28.9 °F 22.8 °F 23.0 °F 78% 30.04 in 10.0 mi SE 5.8 mph - N/A   Clear
2:56 AM 30.9 °F 22.8 °F 24.1 °F 76% 29.99 in 10.0 mi SE 9.2 mph - N/A   Partly Cloudy
3:56 AM 33.1 °F 24.4 °F 25.0 °F 72% 29.94 in 10.0 mi ESE 11.5 mph - N/A   Mostly Cloudy
4:56 AM 33.1 °F 24.4 °F 27.0 °F 78% 29.90 in 10.0 mi ESE 11.5 mph - N/A   Mostly Cloudy
5:56 AM 34.0 °F 26.0 °F 28.9 °F 82% 29.85 in 10.0 mi ESE 10.4 mph - N/A   Overcast
6:56 AM 36.0 °F 26.3 °F 27.0 °F 70% 29.79 in 10.0 mi ESE 16.1 mph - N/A   Overcast
7:56 AM 37.9 °F 27.6 °F 28.0 °F 68% 29.74 in 10.0 mi SE 20.7 mph 26.5 mph N/A   Overcast
8:56 AM 37.9 °F 28.2 °F 28.0 °F 68% 29.71 in 10.0 mi SE 18.4 mph 24.2 mph N/A   Overcast
9:56 AM 37.0 °F 27.7 °F 28.0 °F 70% 29.69 in 10.0 mi SE 16.1 mph 25.3 mph N/A   Overcast
10:56 AM 39.0 °F 30.3 °F 28.9 °F 67% 29.67 in 10.0 mi SE 16.1 mph 25.3 mph 0.00 in   Overcast
11:56 AM 39.9 °F 33.4 °F 30.0 °F 68% 29.64 in 10.0 mi SSE 10.4 mph - N/A   Overcast
12:56 PM 42.1 °F 36.1 °F 30.9 °F 65% 29.60 in 10.0 mi SSE 10.4 mph - N/A   Overcast
1:56 PM 42.1 °F 37.7 °F 35.1 °F 76% 29.57 in 10.0 mi South 6.9 mph - 0.00 in Rain Light Rain
2:14 PM 41.0 °F 35.2 °F 35.6 °F 81% 29.53 in 10.0 mi SSW 9.2 mph - 0.00 in   Overcast
2:38 PM 41.0 °F 35.8 °F 35.6 °F 81% 29.53 in 10.0 mi SSW 8.1 mph - 0.00 in   Overcast
2:56 PM 41.0 °F 35.8 °F 36.0 °F 82% 29.57 in 10.0 mi SSW 8.1 mph - 0.00 in   Overcast
3:56 PM 39.9 °F 36.7 °F 36.0 °F 86% 29.58 in 10.0 mi WSW 4.6 mph - N/A   Overcast
4:41 PM 39.2 °F 35.0 °F 35.6 °F 87% 29.54 in 10.0 mi WSW 5.8 mph - N/A   Overcast
4:56 PM 39.9 °F 35.8 °F 36.0 °F 86% 29.59 in 10.0 mi West 5.8 mph - N/A   Overcast
5:10 PM 39.2 °F 32.5 °F 35.6 °F 87% 29.56 in 10.0 mi West 10.4 mph - N/A   Overcast
5:56 PM 39.9 °F 33.9 °F 34.0 °F 79% 29.61 in 10.0 mi West 9.2 mph - N/A   Overcast
6:53 PM 39.2 °F 33.6 °F 33.8 °F 81% 29.58 in 10.0 mi WNW 8.1 mph - N/A   Overcast
6:56 PM 39.0 °F 32.8 °F 34.0 °F 82% 29.62 in 10.0 mi WNW 9.2 mph - N/A   Overcast
7:56 PM 39.0 °F 33.4 °F 33.1 °F 79% 29.62 in 10.0 mi WNW 8.1 mph - N/A   Overcast
8:21 PM 39.2 °F 32.0 °F 33.8 °F 81% 29.58 in 10.0 mi WNW 11.5 mph - N/A   Mostly Cloudy
8:56 PM 39.9 °F 35.1 °F 35.1 °F 83% 29.63 in 10.0 mi WNW 6.9 mph - N/A   Overcast
9:56 PM 42.1 °F 35.7 °F 37.0 °F 82% 29.65 in 10.0 mi WNW 11.5 mph - N/A   Overcast
10:56 PM 43.0 °F 35.1 °F 37.0 °F 80% 29.67 in 10.0 mi NW 17.3 mph 25.3 mph N/A   Overcast
11:13 PM 42.8 °F 35.1 °F 37.4 °F 81% 29.64 in 10.0 mi NW 16.1 mph 29.9 mph N/A   Overcast
11:56 PM 42.1 °F 32.8 °F 37.0 °F 82% 29.70 in 10.0 mi NW 21.9 mph 33.4 mph N/A   Overcast